This is the latest recevied weather packets stored in our database for station/object N7IGG. If no packets are shown the sender has not sent any weather packets the latest 10 day(s).
| Time | Temp. | Humidity | Pressure | Rain* | Wind** | Luminosity | Snow |
|---|---|---|---|---|---|---|---|
| 1777767304 | 23.33° C | 49% | 1013.1 hPa | 0 mm | - | 383 W/m² | - |
| 1777767002 | 23.33° C | 50% | 1013.4 hPa | 0 mm | - | 368 W/m² | - |
| 1777766699 | 23.33° C | 50% | 1013.6 hPa | 0 mm | - | 417 W/m² | - |
| 1777766396 | 23.33° C | 51% | 1013.3 hPa | 0 mm | - | 411 W/m² | - |
| 1777766092 | 23.33° C | 50% | 1013.3 hPa | 0 mm | - | 416 W/m² | - |
| 1777765790 | 23.33° C | 51% | 1013.5 hPa | 0 mm | - | 440 W/m² | - |
| 1777765486 | 22.78° C | 52% | 1013.7 hPa | 0 mm | - | 407 W/m² | - |
| 1777765184 | 22.78° C | 52% | 1013.6 hPa | 0 mm | - | 402 W/m² | - |
| 1777764879 | 22.78° C | 52% | 1013.7 hPa | 0 mm | - | 434 W/m² | - |
| 1777764576 | 23.33° C | 51% | 1013.8 hPa | 0 mm | - | 445 W/m² | - |
| 1777764273 | 22.78° C | 52% | 1013.9 hPa | 0 mm | - | 458 W/m² | - |
| 1777763970 | 22.78° C | 52% | 1013.8 hPa | 0 mm | - | 493 W/m² | - |
| 1777763667 | 22.78° C | 52% | 1013.9 hPa | 0 mm | - | 481 W/m² | - |
| 1777763365 | 22.78° C | 52% | 1014.1 hPa | 0 mm | - | 516 W/m² | - |
| 1777763063 | 22.78° C | 51% | 1013.9 hPa | 0 mm | - | 444 W/m² | - |
| 1777762761 | 22.78° C | 51% | 1014.1 hPa | 0 mm | - | 542 W/m² | - |
| 1777762456 | 22.78° C | 51% | 1014.2 hPa | 0 mm | - | 536 W/m² | - |
| 1777762153 | 22.78° C | 51% | 1014.2 hPa | 0 mm | - | 558 W/m² | - |
| 1777761849 | 22.22° C | 51% | 1014.5 hPa | 0 mm | - | 561 W/m² | - |
| 1777761546 | 22.22° C | 51% | 1014.4 hPa | 0 mm | - | 458 W/m² | - |
| 1777761244 | 22.78° C | 51% | 1014.5 hPa | 0 mm | - | 483 W/m² | - |
| 1777760942 | 22.78° C | 50% | 1014.7 hPa | 0 mm | - | 281 W/m² | - |
| 1777760639 | 22.78° C | 52% | 1014.7 hPa | 0 mm | - | 396 W/m² | - |
| 1777760334 | 22.78° C | 51% | 1014.8 hPa | 0 mm | - | 585 W/m² | - |
| 1777760032 | 22.22° C | 52% | 1014.7 hPa | 0 mm | - | 632 W/m² | - |
* Rain latest hour (hover to see other rain measurements)
** Current wind speed in m/s (hover to see current wind gust speed)